Home > Weather > Nanaimo > Past weeks

Flag for Canada Past Weather in Nanaimo, British Columbia, Canada — Yesterday and Last 2 Weeks

Now
60 °F

Cool.


Feels Like: 58 °F
Forecast: 54 / 73 °F
Wind: 10 mph from Southeast

Location: Entrance Island

Current Time: Jun 30, 2016 at 10:42:57 AM

Latest Report: Jun 30, 2016 at 10:00 AM


Visibility: N/A

Pressure: 30.20 "Hg

Humidity: 86%

Dew Point: 56 °F

Location of NanaimoLocation

Past Weather in Nanaimo — Graph

°F

Nanaimo Temperature Yesterday

Maximum temperature yesterday: 68 °F (at 6:00 PM)
Minimum temperature yesterday: 63 °F (at 4:00 AM)
Average temperature yesterday: 65 °F

High & Low Weather Summary for the Past Weeks

 TemperatureHumidityPressure
High71 °F (Jun 27, 6:00 PM)96% (Jun 23, 8:00 AM)30.41 "Hg (Jun 23, 8:00 AM)
Low53 °F (Jun 16, 8:00 AM)53% (Jun 26, 11:00 PM)29.90 "Hg (Jun 23, 6:00 AM)
Average60 °F81%30.13 "Hg
* Reported Jun 15 9:00 AM — Jun 30 9:00 AM, Nanaimo, Weather by CustomWeather, © 2016

Note: Actual official high and low records may vary slightly from our data, if they occured in-between our weather recording intervals... More about our weather records

Advertising

Nanaimo Weather History for the Previous 24 Hours

Scroll right to see more
 ConditionsComfort  
Time TempWeatherWind HumidityBarometerVisibility
9:00 AM
Thu, Jun 30
59 °FCool.8 mph87%30.20 "HgN/A
8:00 AM59 °FCool.9 mph88%30.19 "HgN/A
7:00 AM58 °FCool.10 mph88%30.18 "HgN/A
6:00 AM59 °FCool.9 mph89%30.17 "HgN/A
5:00 AM59 °FCool.14 mph89%30.16 "HgN/A
4:00 AM59 °FCool.13 mph89%30.14 "HgN/A
3:00 AM59 °FCool.13 mph90%30.13 "HgN/A
2:00 AM58 °FCool.12 mph95%30.12 "HgN/A
1:00 AM61 °FCool.15 mph89%30.11 "HgN/A
12:00 AM62 °FCool.15 mph90%30.10 "HgN/A
11:00 PM
Wed, Jun 29
63 °FMild.13 mph89%30.09 "HgN/A
10:00 PM64 °FMild.16 mph88%30.08 "HgN/A
9:00 PM66 °FMild.16 mph86%30.06 "HgN/A
8:00 PM67 °FMild.16 mph77%30.06 "HgN/A
7:00 PM68 °FMild.16 mph84%30.06 "HgN/A
6:00 PM68 °FMild.14 mph84%30.07 "HgN/A
5:00 PM67 °FMild.12 mph84%30.08 "HgN/A
4:00 PM66 °FMild.12 mph85%30.10 "HgN/A
3:00 PM66 °FMild.13 mph83%30.11 "HgN/A
2:00 PM66 °FMild.10 mph81%30.13 "HgN/A
1:00 PM65 °FMild.12 mph81%30.14 "HgN/A
12:00 PM64 °FMild.10 mph82%30.16 "HgN/A
11:00 AM65 °FMild.6 mph81%30.17 "HgN/A
10:00 AM64 °FMild.8 mph80%30.17 "HgN/A
Weather by CustomWeather, © 2016

See weather overviewHow to use our weather pages